LNR002 SOCA-TFFF

Flight info

Callsign LNR002
Flight time 1h 57m
Altitude 38000
Route REKIM1A REKIM UN674 BUXEX UA555 BGI/N0418F240 A555 BORUS BORUS2X
Aircraft A320/M-SDE3FGHIRWY/LB1

Departure

Time 2026-04-21 18:06
Airport Cayenne – Félix Eboué Airport (SOCA)

Arrival

Time 2026-04-21 20:03
Airport Martinique Aimé Césaire International Airport (TFFF)
Time Latitude Longitude Altitude Speed Heading
2026-04-21 17:50 4.82181 -52.36307 29 ft 0 kts 335°
2026-04-21 17:58 4.82170 -52.36302 29 ft 4 kts 334°
2026-04-21 17:59 4.82146 -52.36289 29 ft 4 kts 327°
2026-04-21 17:59 4.82125 -52.36273 29 ft 4 kts 310°
2026-04-21 17:59 4.82114 -52.36253 29 ft 4 kts 252°
2026-04-21 17:59 4.82116 -52.36248 29 ft 0 kts 243°
2026-04-21 18:01 4.82111 -52.36254 29 ft 2 kts 233°
2026-04-21 18:01 4.82062 -52.36255 29 ft 11 kts 158°
2026-04-21 18:02 4.81999 -52.36225 29 ft 9 kts 156°
2026-04-21 18:02 4.81947 -52.36239 29 ft 9 kts 227°
2026-04-21 18:02 4.81895 -52.36348 29 ft 23 kts 244°
2026-04-21 18:02 4.81825 -52.36497 28 ft 24 kts 246°
2026-04-21 18:03 4.81753 -52.36657 28 ft 26 kts 245°
2026-04-21 18:03 4.81676 -52.36827 28 ft 27 kts 245°
2026-04-21 18:03 4.81595 -52.37004 28 ft 29 kts 245°
2026-04-21 18:03 4.81510 -52.37187 27 ft 30 kts 245°
2026-04-21 18:04 4.81441 -52.37337 27 ft 12 kts 252°
2026-04-21 18:04 4.81446 -52.37408 27 ft 7 kts 248°
2026-04-21 18:04 4.81416 -52.37397 27 ft 4 kts 122°
2026-04-21 18:04 4.81421 -52.37376 27 ft 3 kts 62°
2026-04-21 18:05 4.81428 -52.37363 27 ft 2 kts 63°
2026-04-21 18:05 4.81432 -52.37355 27 ft 3 kts 63°
2026-04-21 18:05 4.81516 -52.37174 27 ft 65 kts 65°
2026-04-21 18:05 4.81798 -52.36560 29 ft 126 kts 65°
2026-04-21 18:06 4.82235 -52.35609 89 ft 168 kts 65°
2026-04-21 18:06 4.82707 -52.34573 817 ft 162 kts 69°
2026-04-21 18:06 4.83027 -52.33507 1473 ft 162 kts 76°
2026-04-21 18:06 4.83400 -52.32443 2106 ft 165 kts 59°
2026-04-21 18:07 4.84129 -52.31533 2676 ft 170 kts 46°
2026-04-21 18:07 4.85059 -52.30711 3050 ft 189 kts 42°
2026-04-21 18:07 4.86131 -52.29806 3332 ft 212 kts 41°
2026-04-21 18:07 4.87329 -52.28801 3654 ft 238 kts 41°
2026-04-21 18:08 4.88664 -52.27680 4059 ft 261 kts 41°
2026-04-21 18:08 4.90084 -52.26478 4754 ft 271 kts 41°
2026-04-21 18:08 4.91539 -52.25242 5599 ft 276 kts 41°
2026-04-21 18:08 4.93011 -52.23991 6459 ft 280 kts 41°
2026-04-21 18:09 4.94506 -52.22715 7235 ft 284 kts 41°
2026-04-21 18:09 4.96024 -52.21426 8031 ft 288 kts 40°
2026-04-21 18:09 4.97739 -52.20355 8805 ft 292 kts 27°
2026-04-21 18:09 4.99679 -52.19713 9579 ft 297 kts
2026-04-21 18:10 5.01765 -52.19706 10232 ft 306 kts 356°
2026-04-21 18:10 5.03944 -52.19850 10442 ft 329 kts 356°
2026-04-21 18:10 5.06305 -52.20015 10671 ft 349 kts 356°
2026-04-21 18:10 5.08761 -52.20190 11207 ft 357 kts 356°
2026-04-21 18:11 5.11258 -52.20366 11861 ft 360 kts 356°
2026-04-21 18:11 5.13771 -52.20543 12546 ft 363 kts 356°
2026-04-21 18:11 5.16303 -52.20723 13190 ft 367 kts 356°
2026-04-21 18:11 5.18859 -52.20904 13827 ft 370 kts 356°
2026-04-21 18:12 5.21437 -52.21088 14386 ft 373 kts 356°
2026-04-21 18:12 5.24038 -52.21272 14947 ft 377 kts 356°
2026-04-21 18:12 5.26664 -52.21459 15475 ft 380 kts 356°
2026-04-21 18:12 5.29317 -52.21646 15993 ft 384 kts 356°
2026-04-21 18:13 5.31998 -52.21834 16510 ft 388 kts 356°
2026-04-21 18:13 5.34706 -52.22024 17037 ft 392 kts 356°
2026-04-21 18:13 5.37438 -52.22215 17523 ft 396 kts 356°
2026-04-21 18:13 5.40198 -52.22409 18017 ft 400 kts 356°
2026-04-21 18:14 5.45581 -52.23748 18973 ft 402 kts 333°
2026-04-21 18:14 5.47955 -52.25228 19417 ft 404 kts 321°
2026-04-21 18:14 5.49980 -52.27181 19832 ft 405 kts 309°
2026-04-21 18:15 5.51671 -52.29457 20243 ft 408 kts 304°
2026-04-21 18:15 5.53343 -52.31767 20674 ft 410 kts 304°
2026-04-21 18:15 5.55026 -52.34088 21103 ft 413 kts 304°
2026-04-21 18:15 5.56723 -52.36425 21519 ft 415 kts 304°
2026-04-21 18:16 5.58407 -52.38743 21926 ft 417 kts 304°
2026-04-21 18:16 5.60124 -52.41104 22345 ft 420 kts 304°
2026-04-21 18:16 5.61851 -52.43484 22765 ft 422 kts 304°
2026-04-21 18:16 5.63586 -52.45876 23152 ft 425 kts 304°
2026-04-21 18:17 5.65330 -52.48276 23546 ft 427 kts 304°
2026-04-21 18:17 5.67087 -52.50694 23867 ft 429 kts 304°
2026-04-21 18:17 5.68851 -52.53123 24181 ft 432 kts 304°
2026-04-21 18:17 5.70623 -52.55561 24525 ft 433 kts 304°
2026-04-21 18:18 5.72400 -52.58012 24843 ft 435 kts 304°
2026-04-21 18:18 5.74182 -52.60474 25136 ft 438 kts 304°
2026-04-21 18:18 5.75980 -52.62960 25429 ft 441 kts 304°
2026-04-21 18:18 5.77785 -52.65452 25708 ft 443 kts 305°
2026-04-21 18:19 5.79609 -52.67964 25999 ft 446 kts 305°
2026-04-21 18:19 5.81445 -52.70494 26283 ft 449 kts 305°
2026-04-21 18:19 5.83265 -52.73006 26562 ft 451 kts 305°
2026-04-21 18:19 5.85115 -52.75563 26838 ft 454 kts 305°
2026-04-21 18:20 5.86980 -52.78141 27102 ft 456 kts 305°
2026-04-21 18:20 5.88858 -52.80733 27390 ft 459 kts 305°
2026-04-21 18:20 5.90741 -52.83326 27665 ft 462 kts 305°
2026-04-21 18:20 5.92643 -52.85946 27924 ft 464 kts 305°
2026-04-21 18:21 5.94553 -52.88583 28183 ft 467 kts 305°
2026-04-21 18:21 5.96468 -52.91229 28440 ft 469 kts 305°
2026-04-21 18:21 5.98394 -52.93888 28686 ft 472 kts 305°
2026-04-21 18:21 6.00306 -52.96531 28924 ft 474 kts 305°
2026-04-21 18:22 6.02247 -52.99220 29158 ft 476 kts 305°
2026-04-21 18:22 6.04200 -53.01920 29398 ft 479 kts 305°
2026-04-21 18:22 6.06163 -53.04634 29618 ft 481 kts 305°
2026-04-21 18:22 6.08142 -53.07365 29867 ft 483 kts 305°
2026-04-21 18:23 6.10128 -53.10103 30127 ft 484 kts 304°
2026-04-21 18:23 6.12110 -53.12843 30348 ft 485 kts 304°
2026-04-21 18:23 6.14090 -53.15585 30645 ft 484 kts 304°
2026-04-21 18:23 6.16071 -53.18322 30932 ft 484 kts 304°
2026-04-21 18:24 6.18055 -53.21064 31212 ft 484 kts 304°
2026-04-21 18:24 6.20009 -53.23769 31488 ft 484 kts 304°
2026-04-21 18:24 6.21986 -53.26506 31780 ft 484 kts 304°
2026-04-21 18:24 6.23963 -53.29241 32059 ft 484 kts 304°
2026-04-21 18:25 6.25945 -53.31982 32332 ft 484 kts 304°
2026-04-21 18:25 6.27928 -53.34725 32609 ft 484 kts 305°
2026-04-21 18:25 6.29913 -53.37468 32897 ft 484 kts 304°
2026-04-21 18:25 6.31891 -53.40208 33177 ft 484 kts 304°
2026-04-21 18:26 6.33870 -53.42948 33466 ft 484 kts 305°
2026-04-21 18:26 6.35826 -53.45658 33749 ft 484 kts 304°
2026-04-21 18:26 6.37804 -53.48401 34023 ft 485 kts 304°
2026-04-21 18:26 6.39782 -53.51143 34289 ft 484 kts 305°
2026-04-21 18:27 6.41761 -53.53879 34581 ft 483 kts 305°
2026-04-21 18:27 6.43733 -53.56608 34871 ft 481 kts 305°
2026-04-21 18:27 6.45696 -53.59326 35199 ft 479 kts 305°
2026-04-21 18:27 6.47651 -53.62033 35479 ft 478 kts 305°
2026-04-21 18:28 6.49598 -53.64736 35747 ft 477 kts 305°
2026-04-21 18:28 6.51545 -53.67438 36003 ft 476 kts 305°
2026-04-21 18:28 6.53489 -53.70136 36252 ft 475 kts 305°
2026-04-21 18:28 6.55425 -53.72822 36495 ft 474 kts 305°
2026-04-21 18:29 6.57335 -53.75474 36730 ft 473 kts 304°
2026-04-21 18:29 6.59265 -53.78153 36954 ft 473 kts 305°
2026-04-21 18:29 6.61193 -53.80828 37196 ft 472 kts 305°
2026-04-21 18:29 6.63126 -53.83502 37406 ft 471 kts 305°
2026-04-21 18:30 6.65053 -53.86167 37629 ft 471 kts 305°
2026-04-21 18:30 6.66974 -53.88831 37835 ft 470 kts 305°
2026-04-21 18:30 6.68892 -53.91499 37921 ft 471 kts 304°
2026-04-21 18:31 6.72728 -53.96843 37924 ft 470 kts 304°
2026-04-21 18:31 6.77035 -54.01726 37923 ft 471 kts 320°
2026-04-21 18:32 6.82064 -54.05944 37920 ft 470 kts 319°
2026-04-21 18:32 6.87069 -54.10197 37930 ft 470 kts 319°
2026-04-21 18:33 6.92066 -54.14448 37926 ft 470 kts 319°
2026-04-21 18:33 6.97063 -54.18689 37934 ft 470 kts 319°
2026-04-21 18:34 7.02032 -54.22898 37934 ft 470 kts 319°
2026-04-21 18:34 7.07032 -54.27142 37935 ft 470 kts 319°
2026-04-21 18:35 7.11218 -54.30697 37940 ft 470 kts 319°
2026-04-21 18:35 7.17031 -54.35624 37941 ft 469 kts 319°
2026-04-21 18:36 7.21187 -54.39149 37942 ft 469 kts 319°
2026-04-21 18:36 7.26173 -54.43382 37942 ft 469 kts 319°
2026-04-21 18:37 7.31152 -54.47618 37942 ft 468 kts 319°
2026-04-21 18:37 7.36138 -54.51856 37939 ft 468 kts 319°
2026-04-21 18:38 7.41096 -54.56068 37940 ft 468 kts 319°
2026-04-21 18:38 7.46081 -54.60296 37944 ft 468 kts 319°
2026-04-21 18:39 7.51056 -54.64528 37946 ft 468 kts 319°
2026-04-21 18:39 7.56033 -54.68766 37944 ft 468 kts 319°
2026-04-21 18:40 7.61003 -54.72998 37942 ft 467 kts 319°
2026-04-21 18:40 7.65977 -54.77235 37941 ft 468 kts 319°
2026-04-21 18:41 7.70946 -54.81472 37938 ft 468 kts 319°
2026-04-21 18:41 7.75889 -54.85689 37937 ft 468 kts 319°
2026-04-21 18:42 7.80872 -54.89920 37941 ft 468 kts 319°
2026-04-21 18:42 7.85858 -54.94162 37953 ft 468 kts 318°
2026-04-21 18:43 7.90837 -54.98417 37947 ft 468 kts 318°
2026-04-21 18:43 7.95812 -55.02663 37938 ft 468 kts 319°
2026-04-21 18:44 8.00759 -55.06878 37950 ft 469 kts 319°
2026-04-21 18:44 8.05745 -55.11130 37945 ft 469 kts 319°
2026-04-21 18:45 8.10733 -55.15386 37948 ft 470 kts 318°
2026-04-21 18:45 8.15725 -55.19651 37939 ft 470 kts 318°
2026-04-21 18:46 8.20726 -55.23927 37940 ft 471 kts 318°
2026-04-21 18:46 8.25728 -55.28198 37937 ft 471 kts 318°
2026-04-21 18:47 8.30735 -55.32472 37942 ft 471 kts 318°
2026-04-21 18:47 8.35740 -55.36756 37946 ft 472 kts 318°
2026-04-21 18:48 8.40752 -55.41045 37947 ft 472 kts 318°
2026-04-21 18:48 8.45754 -55.45334 37946 ft 471 kts 317°
2026-04-21 18:49 8.50726 -55.49594 37944 ft 471 kts 317°
2026-04-21 18:49 8.54888 -55.53149 37949 ft 471 kts 318°
2026-04-21 18:50 8.60739 -55.58153 37942 ft 471 kts 318°
2026-04-21 18:50 8.65740 -55.62440 37943 ft 471 kts 318°
2026-04-21 18:51 8.70699 -55.66696 37959 ft 471 kts 318°
2026-04-21 18:51 8.75696 -55.70983 37953 ft 470 kts 318°
2026-04-21 18:52 8.80687 -55.75265 37945 ft 469 kts 318°
2026-04-21 18:52 8.85658 -55.79534 37958 ft 468 kts 318°
2026-04-21 18:53 8.90619 -55.83794 37959 ft 467 kts 318°
2026-04-21 18:53 8.95573 -55.88039 37956 ft 466 kts 318°
2026-04-21 18:54 9.00517 -55.92294 37963 ft 466 kts 318°
2026-04-21 18:54 9.05419 -55.96510 37954 ft 466 kts 318°
2026-04-21 18:55 9.09557 -56.00068 37953 ft 466 kts 318°
2026-04-21 18:55 9.15301 -56.05013 37957 ft 466 kts 318°
2026-04-21 18:56 9.20246 -56.09263 37951 ft 466 kts 318°
2026-04-21 18:56 9.25187 -56.13516 37949 ft 465 kts 318°
2026-04-21 18:57 9.30086 -56.17744 37947 ft 465 kts 318°
2026-04-21 18:57 9.35011 -56.21985 37946 ft 465 kts 318°
2026-04-21 18:58 9.39951 -56.26233 37954 ft 465 kts 318°
2026-04-21 18:58 9.44881 -56.30480 37957 ft 465 kts 317°
2026-04-21 18:59 9.49787 -56.34718 37970 ft 462 kts 317°
2026-04-21 18:59 9.54639 -56.38909 37961 ft 459 kts 317°
2026-04-21 19:00 9.59500 -56.43104 37959 ft 458 kts 317°
2026-04-21 19:00 9.64347 -56.47289 37959 ft 457 kts 317°
2026-04-21 19:01 9.69181 -56.51463 37960 ft 456 kts 317°
2026-04-21 19:01 9.74015 -56.55642 37961 ft 456 kts 317°
2026-04-21 19:02 9.78841 -56.59815 37966 ft 456 kts 317°
2026-04-21 19:02 9.83620 -56.63954 37959 ft 454 kts 316°
2026-04-21 19:03 9.88421 -56.68115 37962 ft 453 kts 316°
2026-04-21 19:03 9.93221 -56.72255 37952 ft 452 kts 316°
2026-04-21 19:04 9.98003 -56.76400 37963 ft 451 kts 316°
2026-04-21 19:04 10.02776 -56.80537 37951 ft 451 kts 316°
2026-04-21 19:05 10.07547 -56.84672 37947 ft 451 kts 316°
2026-04-21 19:05 10.12291 -56.88779 37950 ft 451 kts 316°
2026-04-21 19:06 10.17065 -56.92921 37950 ft 450 kts 316°
2026-04-21 19:06 10.21828 -56.97057 37960 ft 450 kts 316°
2026-04-21 19:07 10.26550 -57.01159 37946 ft 450 kts 316°
2026-04-21 19:07 10.31304 -57.05287 37964 ft 449 kts 316°
2026-04-21 19:08 10.36052 -57.09419 37962 ft 449 kts 316°
2026-04-21 19:08 10.40803 -57.13549 37946 ft 449 kts 316°
2026-04-21 19:09 10.45559 -57.17677 37963 ft 450 kts 316°
2026-04-21 19:09 10.50322 -57.21818 37965 ft 449 kts 316°
2026-04-21 19:10 10.55073 -57.25942 37960 ft 449 kts 316°
2026-04-21 19:10 10.59811 -57.30067 37957 ft 448 kts 316°
2026-04-21 19:11 10.64514 -57.34170 37960 ft 448 kts 316°
2026-04-21 19:11 10.69253 -57.38305 37967 ft 448 kts 316°
2026-04-21 19:12 10.73188 -57.41742 37954 ft 448 kts 316°
2026-04-21 19:12 10.78716 -57.46566 37958 ft 448 kts 316°
2026-04-21 19:13 10.83457 -57.50687 37962 ft 448 kts 315°
2026-04-21 19:13 10.88166 -57.54792 37961 ft 447 kts 315°
2026-04-21 19:14 10.92885 -57.58914 37970 ft 447 kts 315°
2026-04-21 19:14 10.97594 -57.63037 37963 ft 446 kts 315°
2026-04-21 19:15 11.02309 -57.67161 37954 ft 446 kts 315°
2026-04-21 19:15 11.07023 -57.71282 37953 ft 446 kts 315°
2026-04-21 19:16 11.11730 -57.75402 37966 ft 446 kts 315°
2026-04-21 19:16 11.16437 -57.79522 37955 ft 446 kts 315°
2026-04-21 19:17 11.23461 -57.85668 37976 ft 444 kts 315°
2026-04-21 19:17 11.28142 -57.89775 37962 ft 444 kts 315°
2026-04-21 19:18 11.32819 -57.93871 37966 ft 443 kts 315°
2026-04-21 19:18 11.37494 -57.97964 37968 ft 442 kts 315°
2026-04-21 19:19 11.42146 -58.02049 37967 ft 442 kts 315°
2026-04-21 19:19 11.46807 -58.06139 37964 ft 441 kts 315°
2026-04-21 19:20 11.51436 -58.10198 37967 ft 441 kts 315°
2026-04-21 19:20 11.56087 -58.14290 37968 ft 441 kts 315°
2026-04-21 19:21 11.60734 -58.18375 37970 ft 440 kts 315°
2026-04-21 19:21 11.65370 -58.22455 37969 ft 440 kts 315°
2026-04-21 19:22 11.70012 -58.26540 37963 ft 440 kts 315°
2026-04-21 19:22 11.73871 -58.29931 37962 ft 440 kts 315°
2026-04-21 19:23 11.79266 -58.34678 37962 ft 440 kts 315°
2026-04-21 19:23 11.83149 -58.38097 37963 ft 440 kts 315°
2026-04-21 19:24 11.87784 -58.42187 37968 ft 440 kts 315°
2026-04-21 19:24 11.92427 -58.46280 37965 ft 440 kts 315°
2026-04-21 19:25 11.97043 -58.50347 37958 ft 441 kts 315°
2026-04-21 19:25 12.01691 -58.54458 37954 ft 442 kts 315°
2026-04-21 19:26 12.06340 -58.58570 37952 ft 442 kts 315°
2026-04-21 19:26 12.11002 -58.62679 37957 ft 442 kts 315°
2026-04-21 19:27 12.15664 -58.66791 37962 ft 443 kts 315°
2026-04-21 19:27 12.20299 -58.70887 37963 ft 443 kts 315°
2026-04-21 19:28 12.24956 -58.75011 37974 ft 443 kts 315°
2026-04-21 19:28 12.29612 -58.79127 37977 ft 442 kts 315°
2026-04-21 19:29 12.34264 -58.83251 37973 ft 442 kts 315°
2026-04-21 19:29 12.38908 -58.87367 37974 ft 442 kts 315°
2026-04-21 19:30 12.43552 -58.91482 37974 ft 441 kts 315°
2026-04-21 19:30 12.48196 -58.95594 37974 ft 441 kts 314°
2026-04-21 19:31 12.52836 -58.99711 37974 ft 441 kts 314°
2026-04-21 19:31 12.57477 -59.03837 37972 ft 441 kts 314°
2026-04-21 19:32 12.62090 -59.07936 37969 ft 442 kts 314°
2026-04-21 19:32 12.66733 -59.12060 37971 ft 442 kts 314°
2026-04-21 19:33 12.71386 -59.16189 37969 ft 442 kts 314°
2026-04-21 19:33 12.76037 -59.20324 37970 ft 442 kts 314°
2026-04-21 19:34 12.80679 -59.24459 37972 ft 442 kts 314°
2026-04-21 19:34 12.85300 -59.28577 37973 ft 442 kts 314°
2026-04-21 19:35 12.92261 -59.34776 37983 ft 442 kts 314°
2026-04-21 19:36 12.96890 -59.38902 37982 ft 440 kts 314°
2026-04-21 19:36 13.01503 -59.43015 37978 ft 438 kts 314°
2026-04-21 19:37 13.06097 -59.47109 37975 ft 437 kts 314°
2026-04-21 19:37 13.10587 -59.51285 37972 ft 434 kts 311°
2026-04-21 19:38 13.14862 -59.55649 37970 ft 433 kts 310°
2026-04-21 19:38 13.19105 -59.60045 37972 ft 433 kts 310°
2026-04-21 19:39 13.23363 -59.64371 37971 ft 433 kts 310°
2026-04-21 19:39 13.27675 -59.68695 37977 ft 433 kts 311°
2026-04-21 19:40 13.31979 -59.73020 37988 ft 433 kts 310°
2026-04-21 19:40 13.36266 -59.77349 37986 ft 432 kts 310°
2026-04-21 19:41 13.40547 -59.81674 37986 ft 431 kts 310°
2026-04-21 19:41 13.44833 -59.85998 37984 ft 431 kts 310°
2026-04-21 19:42 13.49082 -59.90292 37980 ft 431 kts 310°
2026-04-21 19:42 13.53353 -59.94612 37979 ft 431 kts 310°
2026-04-21 19:42 13.55493 -59.96777 37609 ft 432 kts 310°
2026-04-21 19:43 13.57640 -59.98948 36952 ft 432 kts 310°
2026-04-21 19:43 13.59776 -60.01105 36305 ft 431 kts 310°
2026-04-21 19:43 13.61924 -60.03279 35527 ft 434 kts 310°
2026-04-21 19:43 13.64084 -60.05472 34684 ft 439 kts 310°
2026-04-21 19:44 13.66264 -60.07690 33845 ft 443 kts 310°
2026-04-21 19:44 13.68461 -60.09922 32900 ft 446 kts 311°
2026-04-21 19:44 13.70685 -60.12177 31883 ft 451 kts 312°
2026-04-21 19:44 13.72931 -60.14457 30865 ft 456 kts 312°
2026-04-21 19:45 13.75197 -60.16754 30084 ft 456 kts 313°
2026-04-21 19:45 13.77440 -60.19025 29401 ft 450 kts 313°
2026-04-21 19:45 13.79660 -60.21273 28747 ft 444 kts 313°
2026-04-21 19:45 13.81849 -60.23492 28114 ft 438 kts 313°
2026-04-21 19:46 13.84005 -60.25677 27476 ft 433 kts 313°
2026-04-21 19:46 13.86142 -60.27841 26848 ft 429 kts 313°
2026-04-21 19:46 13.88259 -60.29989 26238 ft 425 kts 313°
2026-04-21 19:46 13.90352 -60.32116 25629 ft 422 kts 314°
2026-04-21 19:47 13.92431 -60.34232 25029 ft 418 kts 314°
2026-04-21 19:47 13.94464 -60.36302 24439 ft 415 kts 314°
2026-04-21 19:47 13.96510 -60.38382 23870 ft 412 kts 314°
2026-04-21 19:47 13.98542 -60.40452 23271 ft 409 kts 314°
2026-04-21 19:48 14.00552 -60.42501 22727 ft 404 kts 314°
2026-04-21 19:48 14.02536 -60.44523 22204 ft 399 kts 314°
2026-04-21 19:48 14.04395 -60.46610 21701 ft 393 kts 306°
2026-04-21 19:48 14.05848 -60.48965 21202 ft 388 kts 298°
2026-04-21 19:49 14.07130 -60.51395 20716 ft 384 kts 298°
2026-04-21 19:49 14.08405 -60.53807 20221 ft 381 kts 298°
2026-04-21 19:49 14.09670 -60.56197 19721 ft 379 kts 298°
2026-04-21 19:49 14.10930 -60.58582 19214 ft 377 kts 298°
2026-04-21 19:50 14.11757 -60.60151 18883 ft 377 kts 298°
2026-04-21 19:50 14.13432 -60.63326 18180 ft 376 kts 299°
2026-04-21 19:50 14.14682 -60.65694 17614 ft 375 kts 298°
2026-04-21 19:50 14.15909 -60.68020 17088 ft 373 kts 298°
2026-04-21 19:51 14.17144 -60.70359 16560 ft 372 kts 298°
2026-04-21 19:51 14.18375 -60.72694 16024 ft 370 kts 298°
2026-04-21 19:51 14.19601 -60.75022 15508 ft 369 kts 298°
2026-04-21 19:51 14.20825 -60.77349 14987 ft 368 kts 297°
2026-04-21 19:52 14.22044 -60.79663 14466 ft 366 kts 297°
2026-04-21 19:52 14.23261 -60.81969 13931 ft 366 kts 297°
2026-04-21 19:52 14.24476 -60.84265 13354 ft 364 kts 297°
2026-04-21 19:52 14.25685 -60.86549 12815 ft 361 kts 297°
2026-04-21 19:53 14.26875 -60.88807 12294 ft 358 kts 297°
2026-04-21 19:53 14.28059 -60.91057 11747 ft 355 kts 297°
2026-04-21 19:53 14.29231 -60.93288 11200 ft 352 kts 297°
2026-04-21 19:53 14.30390 -60.95496 10741 ft 346 kts 297°
2026-04-21 19:54 14.31519 -60.97648 10539 ft 333 kts 297°
2026-04-21 19:54 14.32599 -60.99705 10417 ft 319 kts 297°
2026-04-21 19:54 14.33637 -61.01680 10299 ft 307 kts 297°
2026-04-21 19:54 14.34633 -61.03574 10181 ft 295 kts 297°
2026-04-21 19:55 14.35588 -61.05393 9939 ft 289 kts 297°
2026-04-21 19:55 14.36552 -61.07231 9486 ft 290 kts 297°
2026-04-21 19:55 14.37507 -61.09049 9148 ft 287 kts 297°
2026-04-21 19:55 14.38456 -61.10856 8757 ft 285 kts 297°
2026-04-21 19:56 14.39400 -61.12657 8342 ft 285 kts 298°
2026-04-21 19:56 14.40339 -61.14451 7965 ft 283 kts 298°
2026-04-21 19:56 14.41271 -61.16230 7465 ft 281 kts 298°
2026-04-21 19:56 14.42205 -61.18010 6780 ft 281 kts 298°
2026-04-21 19:57 14.43123 -61.19761 6117 ft 281 kts 299°
2026-04-21 19:57 14.44119 -61.21486 5414 ft 278 kts 311°
2026-04-21 19:57 14.45637 -61.22672 4721 ft 275 kts 339°
2026-04-21 19:57 14.47472 -61.22973 4318 ft 264 kts
2026-04-21 19:58 14.49181 -61.22555 4159 ft 243 kts 18°
2026-04-21 19:58 14.50775 -61.22073 4038 ft 236 kts 18°
2026-04-21 19:58 14.52347 -61.21596 3924 ft 234 kts 17°
2026-04-21 19:58 14.53883 -61.21019 3606 ft 238 kts 31°
2026-04-21 19:59 14.55137 -61.19945 3344 ft 233 kts 52°
2026-04-21 19:59 14.55921 -61.18519 3092 ft 228 kts 72°
2026-04-21 19:59 14.56253 -61.16932 2810 ft 225 kts 80°
2026-04-21 19:59 14.56521 -61.15361 2525 ft 219 kts 80°
2026-04-21 20:00 14.56780 -61.13851 2242 ft 208 kts 80°
2026-04-21 20:00 14.57026 -61.12418 1978 ft 198 kts 80°
2026-04-21 20:00 14.57262 -61.11050 1746 ft 188 kts 79°
2026-04-21 20:00 14.57483 -61.09768 1498 ft 175 kts 80°
2026-04-21 20:01 14.57687 -61.08582 1267 ft 163 kts 80°
2026-04-21 20:01 14.57876 -61.07475 1060 ft 148 kts 80°
2026-04-21 20:01 14.58051 -61.06460 890 ft 140 kts 79°
2026-04-21 20:01 14.58219 -61.05484 731 ft 135 kts 79°
2026-04-21 20:02 14.58326 -61.04858 616 ft 133 kts 79°
2026-04-21 20:02 14.58536 -61.03619 412 ft 130 kts 77°
2026-04-21 20:02 14.58699 -61.02700 246 ft 130 kts 80°
2026-04-21 20:02 14.58858 -61.01768 61 ft 132 kts 79°
2026-04-21 20:03 14.59005 -61.00918 22 ft 103 kts 80°
2026-04-21 20:03 14.59098 -61.00366 16 ft 53 kts 79°
2026-04-21 20:03 14.59140 -61.00116 17 ft 27 kts 80°
2026-04-21 20:03 14.59171 -61.00030 20 ft 8 kts 27°
2026-04-21 20:04 14.59228 -61.00025 20 ft 8 kts 354°
2026-04-21 20:04 14.59274 -61.00036 20 ft 6 kts 352°
2026-04-21 20:04 14.59314 -61.00041 20 ft 6 kts 352°
2026-04-21 20:04 14.59351 -61.00050 19 ft 6 kts 337°
2026-04-21 20:05 14.59387 -61.00064 18 ft 6 kts 359°
2026-04-21 20:05 14.59425 -61.00052 18 ft 6 kts 20°
2026-04-21 20:05 14.59447 -61.00044 18 ft 0 kts 20°